Date String (YYYY-MM-DD hh:mm:ss) UTC,Instrument flags,Ambient pressure (hPa),Sample flow (lpm),Bypass flow (lpm),Sample temperature (°C),Ambient temperature (°C),ASC tube jacket temperature (°C),LED temperature (°C),Box temperature (°C),Sample RH (%),Span deviation,Mass concentration (μg/m³),Mass concentration (μg/m³),Mass concentration (μg/m³)
DateTimeUTC,F1_M11,P_M11,Q1_M11,Q2_M11,T1_M11,T2_M11,T3_M11,T4_M11,T5_M11,U1_M11,ZSPAN_M11,X0_M11,X2_M11,X1_M11
2022-08-06 14:00:00,,0830.0,5.01,0.00,30.2,28.5,00.0,38.8,31.9,34.7,0000.0,0009.41,0005.25,0004.49
2022-08-06 14:01:00,,0830.0,4.99,0.00,30.2,28.6,00.0,38.8,31.9,34.7,0000.0,0009.54,0005.30,0004.52
2022-08-06 14:02:00,,0830.0,5.00,0.00,30.3,28.7,00.0,38.9,31.9,34.7,0000.0,0009.35,0005.30,0004.54
2022-08-06 14:03:00,,0829.9,5.01,0.00,30.3,28.8,00.0,38.9,31.9,34.9,0000.0,0009.44,0005.34,0004.56
2022-08-06 14:04:00,,0829.9,4.99,0.00,30.3,28.9,00.0,38.9,32.0,35.0,0000.0,0009.51,0005.36,0004.58
2022-08-06 14:05:00,,0829.9,5.01,0.00,30.4,28.9,00.0,38.9,32.0,34.7,0000.0,0009.48,0005.35,0004.56
2022-08-06 14:06:00,,0829.9,5.00,0.00,30.5,28.6,00.0,38.9,32.0,34.6,0000.0,0009.26,0005.33,0004.55
2022-08-06 14:07:00,,0829.8,5.00,0.00,30.4,28.0,00.0,38.9,31.9,34.5,0000.0,0009.28,0005.34,0004.56
2022-08-06 14:08:00,,0829.9,4.99,0.00,30.4,27.6,00.0,38.9,31.7,34.5,0000.0,0009.27,0005.35,0004.56
2022-08-06 14:09:00,,0829.9,5.01,0.00,30.3,27.6,00.0,38.9,31.7,34.5,0000.0,0009.15,0005.37,0004.56
2022-08-06 14:10:00,,0829.9,4.99,0.00,30.2,27.7,00.0,38.9,31.7,34.8,0000.0,0009.11,0005.38,0004.57
2022-08-06 14:11:00,,0829.9,5.01,0.00,30.2,27.8,00.0,38.8,31.7,35.0,0000.0,0009.60,0005.40,0004.56
2022-08-06 14:12:00,,0829.8,5.00,0.00,30.2,28.0,00.0,38.9,31.7,35.2,0000.0,0009.67,0005.36,0004.55
2022-08-06 14:13:00,,0829.9,5.00,0.00,30.4,28.1,00.0,38.8,31.9,34.5,0000.0,0009.75,0005.39,0004.55
2022-08-06 14:14:00,,0829.9,5.00,0.00,30.6,28.3,00.0,38.9,31.9,34.1,0000.0,0009.80,0005.40,0004.54
2022-08-06 14:15:00,,0829.9,5.00,0.00,30.7,28.4,00.0,38.9,32.0,34.1,0000.0,0009.73,0005.39,0004.53
2022-08-06 14:16:00,,0829.9,5.00,0.00,30.7,28.5,00.0,38.9,32.0,33.9,0000.0,0009.71,0005.41,0004.53
2022-08-06 14:17:00,,0829.9,5.01,0.00,30.7,28.6,00.0,39.0,32.0,33.7,0000.0,0009.85,0005.45,0004.52
2022-08-06 14:18:00,,0829.9,5.00,0.00,30.8,28.7,00.0,39.0,32.0,33.8,0000.0,0009.92,0005.46,0004.52
2022-08-06 14:19:00,,0829.8,5.00,0.00,30.8,28.8,00.0,39.0,32.0,33.7,0000.0,0009.90,0005.45,0004.52
2022-08-06 14:20:00,,0829.9,5.00,0.00,30.8,28.8,00.0,39.1,32.0,33.4,0000.0,0009.87,0005.45,0004.52
2022-08-06 14:21:00,,0829.8,4.99,0.00,30.8,28.2,00.0,39.1,31.9,33.1,0000.0,0010.11,0005.45,0004.50
2022-08-06 14:22:00,,0829.8,5.01,0.00,30.7,27.7,00.0,39.1,31.8,33.4,0000.0,0010.31,0005.44,0004.50
2022-08-06 14:23:00,,0829.8,5.00,0.00,30.6,27.6,00.0,39.0,31.8,34.0,0000.0,0010.11,0005.45,0004.51
2022-08-06 14:24:00,,0829.8,4.99,0.00,30.5,27.7,00.0,39.0,31.7,34.1,0000.0,0009.99,0005.42,0004.53
2022-08-06 14:25:00,,0829.8,5.00,0.00,30.5,27.8,00.0,39.0,31.7,34.3,0000.0,0009.84,0005.39,0004.54
2022-08-06 14:26:00,,0829.8,4.99,0.00,30.4,27.9,00.0,39.0,31.8,34.4,0000.0,0009.85,0005.40,0004.54
2022-08-06 14:27:00,,0829.8,5.00,0.00,30.4,28.1,00.0,39.0,31.7,34.2,0000.0,0009.90,0005.39,0004.55
2022-08-06 14:28:00,,0829.8,5.00,0.00,30.4,28.2,00.0,39.0,31.8,34.3,0000.0,0009.80,0005.37,0004.56
2022-08-06 14:29:00,,0829.8,5.00,0.00,30.4,28.4,00.0,39.0,31.9,34.7,0000.0,0010.01,0005.34,0004.56
2022-08-06 14:30:00,,0829.8,5.01,0.00,30.4,28.5,00.0,39.0,31.9,35.2,0000.0,0010.57,0005.37,0004.58
2022-08-06 14:31:00,,0829.8,5.00,0.00,30.6,28.6,00.0,39.0,32.1,34.7,0000.0,0010.55,0005.34,0004.59
2022-08-06 14:32:00,,0829.8,5.01,0.00,30.8,28.7,00.0,39.0,32.1,34.4,0000.0,0010.40,0005.33,0004.61
2022-08-06 14:33:00,,0829.8,5.01,0.00,30.9,28.8,00.0,39.1,32.2,34.2,0000.0,0009.50,0005.31,0004.62
2022-08-06 14:34:00,,0829.8,4.99,0.00,30.9,28.7,00.0,39.1,32.1,34.0,0000.0,0009.62,0005.32,0004.63
2022-08-06 14:35:00,,0829.8,5.01,0.00,30.9,28.1,00.0,39.1,32.0,34.2,0000.0,0009.78,0005.38,0004.64
2022-08-06 14:36:00,,0829.7,4.99,0.00,30.8,27.7,00.0,39.1,31.9,34.2,0000.0,0009.96,0005.40,0004.65
2022-08-06 14:37:00,,0829.7,5.01,0.00,30.8,27.6,00.0,39.1,31.8,34.3,0000.0,0011.40,0005.42,0004.65
2022-08-06 14:38:00,,0829.7,4.99,0.00,30.7,27.7,00.0,39.1,31.8,34.5,0000.0,0011.80,0005.47,0004.65
2022-08-06 14:39:00,,0829.7,5.01,0.00,30.6,27.8,00.0,39.1,31.7,35.0,0000.0,0012.02,0005.46,0004.66
2022-08-06 14:40:00,,0829.6,4.99,0.00,30.7,27.9,00.0,39.1,31.8,35.1,0000.0,0012.13,0005.50,0004.68
2022-08-06 14:41:00,,0829.7,5.00,0.00,30.9,28.1,00.0,39.1,32.0,34.8,0000.0,0011.66,0005.53,0004.68
2022-08-06 14:42:00,,0829.7,4.99,0.00,31.1,28.2,00.0,39.1,32.1,34.3,0000.0,0011.76,0005.59,0004.71
2022-08-06 14:43:00,,0829.7,5.01,0.00,31.2,28.4,00.0,39.1,32.1,34.1,0000.0,0011.79,0005.62,0004.72
2022-08-06 14:44:00,,0829.7,5.00,0.00,31.2,28.5,00.0,39.2,32.1,33.7,0000.0,0011.94,0005.68,0004.75
2022-08-06 14:45:00,,0829.7,5.00,0.00,31.3,28.6,00.0,39.2,32.1,33.7,0000.0,0011.91,0005.71,0004.76
2022-08-06 14:46:00,,0829.7,4.99,0.00,31.3,28.7,00.0,39.3,32.2,33.8,0000.0,0011.93,0005.72,0004.78
2022-08-06 14:47:00,,0829.8,5.01,0.00,31.3,28.8,00.0,39.3,32.2,33.6,0000.0,0012.13,0005.78,0004.81
2022-08-06 14:48:00,,0829.7,5.00,0.00,31.3,28.6,00.0,39.4,32.2,33.7,0000.0,0010.88,0005.82,0004.86
2022-08-06 14:49:00,,0829.7,4.99,0.00,31.2,28.0,00.0,39.4,32.0,33.9,0000.0,0010.30,0005.81,0004.90
2022-08-06 14:50:00,,0829.7,5.01,0.00,31.2,27.6,00.0,39.4,32.0,33.2,0000.0,0010.07,0005.81,0004.93
2022-08-06 14:51:00,,0829.7,5.00,0.00,31.1,27.6,00.0,39.4,31.9,33.3,0000.0,0009.70,0005.81,0004.93
2022-08-06 14:52:00,,0829.6,5.00,0.00,31.0,27.7,00.0,39.3,31.9,33.5,0000.0,0009.58,0005.80,0004.92
2022-08-06 14:53:00,,0829.6,4.99,0.00,30.9,27.8,00.0,39.3,31.9,33.7,0000.0,0009.49,0005.76,0004.91
2022-08-06 14:54:00,,0829.7,5.00,0.00,30.8,28.0,00.0,39.3,31.9,34.2,0000.0,0009.46,0005.74,0004.93
2022-08-06 14:55:00,,0829.6,5.01,0.00,30.8,28.1,00.0,39.3,31.9,34.1,0000.0,0009.57,0005.74,0004.94
2022-08-06 14:56:00,,0829.7,5.00,0.00,30.8,28.3,00.0,39.3,32.0,34.1,0000.0,0010.24,0005.74,0004.95
2022-08-06 14:57:00,,0829.6,5.00,0.00,30.8,28.4,00.0,39.3,32.0,34.4,0000.0,0010.22,0005.72,0004.94
2022-08-06 14:58:00,,0829.6,5.00,0.00,30.7,28.6,00.0,39.3,32.0,34.9,0000.0,0010.20,0005.75,0004.95
2022-08-06 14:59:00,,0829.6,5.00,0.00,30.8,28.7,00.0,39.3,32.1,34.8,0000.0,0010.46,0005.77,0004.95
